FW2581 Weather Reports


Display with metric or nautical units.
time (UTC)temp
F
wind
direction
speed
MPH
gust
MPH
rain 1hr
in
rain 24hr
in
rain mn
in
humidity
%
barometer
mb
20260507203032 73 71 5.0 10.0 0.00 0.00 0.00 36 1017.3
20260507200032 73 69 5.0 13.0 0.00 0.00 0.00 39 1017.5
20260507194531 72 63 4.0 10.0 0.00 0.00 0.00 39 1017.6
20260507193032 71 47 5.0 11.0 0.00 0.00 0.00 41 1017.6
20260507191605 70 70 4.0 9.0 0.00 0.00 0.00 43 1017.8
20260507190033 69 44 5.0 10.0 0.00 0.00 0.00 45 1018.0
20260507184533 68 62 4.0 11.0 0.00 0.00 0.00 49 1018.2
20260507181533 67 50 5.0 12.0 0.00 0.00 0.00 51 1018.3
20260507180031 66 63 7.0 13.0 0.00 0.00 0.00 53 1018.4
20260507174642 66 69 6.0 12.0 0.00 0.00 0.00 54 1018.4
20260507173034 66 74 7.0 17.0 0.00 0.00 0.00 51 1018.4
20260507170031 64 291 3.0 7.0 0.00 0.00 0.00 55 1018.5
20260507164534 61 276 4.0 7.0 0.00 0.00 0.00 63 1018.5
20260507163037 61 267 5.0 10.0 0.00 0.00 0.00 66 1018.6
20260507160141 56 264 4.0 7.0 0.00 0.00 0.00 83 1019.1
20260507154536 52 290 0.0 5.0 0.00 0.00 0.00 91 1019.5
20260507151531 49 225 0.0 2.0 0.00 0.00 0.00 94 1019.6
20260507150047 48 225 0.0 1.0 0.00 0.00 0.00 95 1019.6
20260507144607 47 246 0.0 1.0 0.00 0.00 0.00 95 1019.6
20260507141535 44 202 0.0 1.0 0.00 0.00 0.00 94 1019.5
20260507140033 42 203 2.0 4.0 0.00 0.00 0.00 93 1019.1
20260507133029 41 247 0.0 3.0 0.00 0.00 0.00 93 1019.1
20260507131531 40 247 0.0 2.0 0.00 0.00 0.00 92 1019.0
20260507124532 41 247 0.0 2.0 0.00 0.00 0.00 92 1018.9
20260507123029 41 218 1.0 2.0 0.00 0.00 0.00 91 1018.7
20260507121530 41 269 0.0 3.0 0.00 0.00 0.00 91 1018.7
20260507120106 41 337 0.0 0.0 0.00 0.00 0.00 90 1018.6
20260507114535 42 337 0.0 0.0 0.00 0.00 0.00 90 1018.5
20260507113032 43 337 0.0 3.0 0.00 0.00 0.00 89 1018.4
20260507110052 44 319 0.0 4.0 0.00 0.00 0.00 87 1018.3
20260507104642 45 154 1.0 3.0 0.00 0.00 0.00 85 1018.2
20260507103107 46 178 0.0 3.0 0.00 0.00 0.00 84 1018.2
20260507100037 48 135 0.0 4.0 0.00 0.00 0.00 81 1018.1
20260507091529 49 206 2.0 4.0 0.00 0.00 0.00 76 1018.2
20260507090108 50 208 3.0 6.0 0.00 0.00 0.00 76 1018.3
20260507084530 49 189 3.0 6.0 0.00 0.00 0.00 77 1018.3
20260507083038 49 171 2.0 5.0 0.00 0.00 0.00 74 1018.4
20260507081537 50 30 1.0 4.0 0.00 0.00 0.00 72 1018.3
20260507080030 51 205 2.0 3.0 0.00 0.00 0.00 69 1018.3
20260507074536 53 172 3.0 5.0 0.00 0.00 0.00 66 1018.2
20260507073037 55 174 1.0 6.0 0.00 0.00 0.00 63 1018.1
20260507070033 57 70 3.0 5.0 0.00 0.00 0.00 59 1018.1
20260507064531 58 79 4.0 7.0 0.00 0.00 0.00 57 1018.3
20260507063035 60 135 3.0 7.0 0.00 0.00 0.00 54 1018.3
20260507061535 61 304 4.0 12.0 0.00 0.00 0.00 53 1018.2
20260507060031 61 339 8.0 14.0 0.00 0.00 0.00 53 1018.1
20260507054531 61 339 9.0 18.0 0.00 0.00 0.00 52 1018.3
20260507053034 61 338 8.0 15.0 0.00 0.00 0.00 52 1018.5
20260507051530 60 335 7.0 14.0 0.00 0.00 0.00 51 1018.7
20260507050037 61 320 5.0 10.0 0.00 0.00 0.00 50 1018.8
20260507044528 61 301 6.0 11.0 0.00 0.00 0.00 50 1018.9
20260507043030 61 298 6.0 14.0 0.00 0.00 0.00 50 1018.8
20260507040043 62 295 5.0 13.0 0.00 0.00 0.00 51 1018.6
20260507034532 63 287 6.0 14.0 0.00 0.00 0.00 50 1018.5
20260507033030 63 291 6.0 14.0 0.00 0.00 0.00 48 1018.4
20260507030031 65 302 10.0 21.0 0.00 0.00 0.00 46 1017.9
20260507024610 66 314 9.0 19.0 0.00 0.00 0.00 46 1017.7
20260507023031 66 318 8.0 23.0 0.00 0.00 0.00 45 1017.6
20260507021535 67 317 6.0 18.0 0.00 0.00 0.00 44 1017.7
20260507014642 69 302 7.0 17.0 0.00 0.00 0.00 40 1017.6
20260507013031 69 303 9.0 21.0 0.00 0.00 0.00 40 1017.5
20260507011607 71 302 9.0 21.0 0.00 0.00 0.00 39 1017.2
20260507004607 71 298 9.0 18.0 0.00 0.00 0.00 39 1017.1
20260507003150 71 296 10.0 20.0 0.00 0.00 0.00 38 1017.1
20260507001533 72 294 10.0 22.0 0.00 0.00 0.00 37 1017.0
20260506233031 76 299 10.0 22.0 0.00 0.00 0.00 33 1016.8
20260506231530 77 306 11.0 21.0 0.00 0.00 0.00 33 1016.8
20260506230030 77 296 9.0 19.0 0.00 0.00 0.00 35 1016.9
20260506224616 77 295 10.0 20.0 0.00 0.00 0.00 36 1017.0
20260506224607 77 289 10.0 21.0 0.00 0.00 0.00 36 1017.3
20260506220030 79 290 10.0 24.0 0.00 0.00 0.00 34 1016.8
20260506214609 79 281 12.0 23.0 0.00 0.00 0.00 33 1016.9
20260506211607 78 302 10.0 22.0 0.00 0.00 0.00 33 1017.0
20260506204531 79 307 10.0 25.0 0.00 0.00 0.00 35 1017.2